Time,TemperatureF,DewpointF,PressureIn,WindDirection,WindDirectionDegrees,WindSpeedMPH,WindSpeedGustMPH,Humidity,HourlyPrecipIn,Conditions,Clouds,dailyrainin,SoftwareType,DateUTC
2013-06-25 00:02:00,80.8,68.4,29.86,North,-999,-999.0,-999.0,66,-99.99,,,-99.99,meteohub,2013-06-25 05:02:00,
2013-06-25 00:07:00,80.8,68.4,29.86,North,-999,-999.0,-999.0,66,-99.99,,,-99.99,meteohub,2013-06-25 05:07:00,
2013-06-25 00:12:00,80.8,68.4,29.86,North,-999,-999.0,-999.0,66,-99.99,,,-99.99,meteohub,2013-06-25 05:12:00,
2013-06-25 00:17:00,80.4,68.5,29.85,North,-999,-999.0,-999.0,67,-99.99,,,-99.99,meteohub,2013-06-25 05:17:00,
2013-06-25 00:22:00,80.4,68.5,29.85,North,-999,-999.0,-999.0,67,-99.99,,,-99.99,meteohub,2013-06-25 05:22:00,
2013-06-25 00:27:00,80.4,68.9,29.85,North,-999,-999.0,-999.0,68,-99.99,,,-99.99,meteohub,2013-06-25 05:27:00,
2013-06-25 00:32:00,80.2,68.7,29.85,North,-999,-999.0,-999.0,68,-99.99,,,-99.99,meteohub,2013-06-25 05:32:00,
2013-06-25 00:37:00,80.2,69.1,29.85,North,-999,-999.0,-999.0,69,-99.99,,,-99.99,meteohub,2013-06-25 05:37:00,
2013-06-25 00:42:00,79.9,68.7,29.85,North,-999,-999.0,-999.0,69,-99.99,,,-99.99,meteohub,2013-06-25 05:42:00,
2013-06-25 00:47:00,80.1,68.9,29.84,North,-999,-999.0,-999.0,69,-99.99,,,-99.99,meteohub,2013-06-25 05:47:00,
2013-06-25 00:52:00,80.1,69.4,29.84,North,-999,-999.0,-999.0,70,-99.99,,,-99.99,meteohub,2013-06-25 05:52:00,
2013-06-25 00:57:00,79.9,69.3,29.84,North,-999,-999.0,-999.0,70,-99.99,,,-99.99,meteohub,2013-06-25 05:57:00,
2013-06-25 01:02:00,79.9,69.6,29.84,North,-999,-999.0,-999.0,71,-99.99,,,-99.99,meteohub,2013-06-25 06:02:00,
2013-06-25 01:07:00,79.9,69.6,29.84,North,-999,-999.0,-999.0,71,-99.99,,,-99.99,meteohub,2013-06-25 06:07:00,
2013-06-25 01:12:00,79.9,69.6,29.84,North,-999,-999.0,-999.0,71,-99.99,,,-99.99,meteohub,2013-06-25 06:12:00,
2013-06-25 01:17:00,79.9,69.6,29.84,North,-999,-999.0,-999.0,71,-99.99,,,-99.99,meteohub,2013-06-25 06:17:00,
2013-06-25 01:25:00,79.9,69.6,29.84,North,-999,-999.0,-999.0,71,-99.99,,,-99.99,meteohub,2013-06-25 06:25:00,
2013-06-25 01:31:00,79.9,69.6,29.83,North,-999,-999.0,-999.0,71,-99.99,,,-99.99,meteohub,2013-06-25 06:31:00,
2013-06-25 01:37:00,79.9,69.6,29.82,North,-999,-999.0,-999.0,71,-99.99,,,-99.99,meteohub,2013-06-25 06:37:00,
2013-06-25 01:43:00,79.9,69.6,29.83,North,-999,-999.0,-999.0,71,-99.99,,,-99.99,meteohub,2013-06-25 06:43:00,
2013-06-25 01:52:00,79.7,69.4,29.81,North,-999,-999.0,-999.0,71,-99.99,,,-99.99,meteohub,2013-06-25 06:52:00,
2013-06-25 01:58:00,79.7,69.8,29.81,North,-999,-999.0,-999.0,72,-99.99,,,-99.99,meteohub,2013-06-25 06:58:00,
2013-06-25 02:07:00,79.3,70.0,29.81,North,-999,-999.0,-999.0,73,-99.99,,,-99.99,meteohub,2013-06-25 07:07:00,
2013-06-25 02:13:00,79.3,69.4,29.80,North,-999,-999.0,-999.0,72,-99.99,,,-99.99,meteohub,2013-06-25 07:13:00,
2013-06-25 02:22:00,79.2,69.3,29.81,North,-999,-999.0,-999.0,72,-99.99,,,-99.99,meteohub,2013-06-25 07:22:00,
2013-06-25 02:28:00,79.2,69.3,29.80,North,-999,-999.0,-999.0,72,-99.99,,,-99.99,meteohub,2013-06-25 07:28:00,
2013-06-25 02:37:00,79.2,69.3,29.79,North,-999,-999.0,-999.0,72,-99.99,,,-99.99,meteohub,2013-06-25 07:37:00,
2013-06-25 02:42:00,79.0,69.6,29.78,North,-999,-999.0,-999.0,73,-99.99,,,-99.99,meteohub,2013-06-25 07:42:00,
2013-06-25 02:47:00,79.0,69.6,29.78,North,-999,-999.0,-999.0,73,-99.99,,,-99.99,meteohub,2013-06-25 07:47:00,
2013-06-25 02:52:00,79.0,69.3,29.78,North,-999,-999.0,-999.0,72,-99.99,,,-99.99,meteohub,2013-06-25 07:52:00,
2013-06-25 02:57:00,79.2,69.3,29.77,North,-999,-999.0,-999.0,72,-99.99,,,-99.99,meteohub,2013-06-25 07:57:00,
2013-06-25 03:02:00,79.2,69.3,29.77,North,-999,-999.0,-999.0,72,-99.99,,,-99.99,meteohub,2013-06-25 08:02:00,
2013-06-25 03:07:00,79.3,69.1,29.78,North,-999,-999.0,-999.0,71,-99.99,,,-99.99,meteohub,2013-06-25 08:07:00,
2013-06-25 03:12:00,79.3,69.1,29.77,North,-999,-999.0,-999.0,71,-99.99,,,-99.99,meteohub,2013-06-25 08:12:00,
2013-06-25 03:17:00,79.0,68.7,29.76,North,-999,-999.0,-999.0,71,-99.99,,,-99.99,meteohub,2013-06-25 08:17:00,
2013-06-25 03:22:00,79.3,69.1,29.76,North,-999,-999.0,-999.0,71,-99.99,,,-99.99,meteohub,2013-06-25 08:22:00,
2013-06-25 03:27:00,79.3,69.1,29.75,North,-999,-999.0,-999.0,71,-99.99,,,-99.99,meteohub,2013-06-25 08:27:00,
2013-06-25 03:32:00,79.3,69.1,29.75,North,-999,-999.0,-999.0,71,-99.99,,,-99.99,meteohub,2013-06-25 08:32:00,
2013-06-25 03:37:00,79.2,68.9,29.76,North,-999,-999.0,-999.0,71,-99.99,,,-99.99,meteohub,2013-06-25 08:37:00,
2013-06-25 03:42:00,79.2,68.9,29.77,North,-999,-999.0,-999.0,71,-99.99,,,-99.99,meteohub,2013-06-25 08:42:00,
2013-06-25 03:47:00,79.2,68.9,29.77,North,-999,-999.0,-999.0,71,-99.99,,,-99.99,meteohub,2013-06-25 08:47:00,
2013-06-25 03:52:00,79.0,68.7,29.78,North,-999,-999.0,-999.0,71,-99.99,,,-99.99,meteohub,2013-06-25 08:52:00,
2013-06-25 03:57:00,79.2,68.9,29.78,North,-999,-999.0,-999.0,71,-99.99,,,-99.99,meteohub,2013-06-25 08:57:00,
2013-06-25 04:05:00,79.3,69.1,29.80,North,-999,-999.0,-999.0,71,-99.99,,,-99.99,meteohub,2013-06-25 09:05:00,
2013-06-25 04:11:00,79.5,68.9,29.81,North,-999,-999.0,-999.0,70,-99.99,,,-99.99,meteohub,2013-06-25 09:11:00,
2013-06-25 04:20:00,79.7,68.5,29.80,North,-999,-999.0,-999.0,69,-99.99,,,-99.99,meteohub,2013-06-25 09:20:00,
2013-06-25 04:26:00,79.7,68.5,29.79,North,-999,-999.0,-999.0,69,-99.99,,,-99.99,meteohub,2013-06-25 09:26:00,
2013-06-25 04:32:00,79.9,68.7,29.79,North,-999,-999.0,-999.0,69,-99.99,,,-99.99,meteohub,2013-06-25 09:32:00,
2013-06-25 04:37:00,79.7,68.5,29.79,North,-999,-999.0,-999.0,69,-99.99,,,-99.99,meteohub,2013-06-25 09:37:00,
2013-06-25 04:42:00,79.5,68.9,29.79,North,-999,-999.0,-999.0,70,-99.99,,,-99.99,meteohub,2013-06-25 09:42:00,
2013-06-25 04:47:00,79.3,68.7,29.79,North,-999,-999.0,-999.0,70,-99.99,,,-99.99,meteohub,2013-06-25 09:47:00,
2013-06-25 04:52:00,79.2,68.9,29.78,North,-999,-999.0,-999.0,71,-99.99,,,-99.99,meteohub,2013-06-25 09:52:00,
2013-06-25 04:57:00,79.0,69.3,29.77,North,-999,-999.0,-999.0,72,-99.99,,,-99.99,meteohub,2013-06-25 09:57:00,
2013-06-25 05:02:00,78.6,68.9,29.77,North,-999,-999.0,-999.0,72,-99.99,,,-99.99,meteohub,2013-06-25 10:02:00,
2013-06-25 05:07:00,79.0,69.3,29.77,North,-999,-999.0,-999.0,72,-99.99,,,-99.99,meteohub,2013-06-25 10:07:00,
2013-06-25 05:12:00,79.3,69.4,29.78,North,-999,-999.0,-999.0,72,-99.99,,,-99.99,meteohub,2013-06-25 10:12:00,
2013-06-25 05:17:00,79.2,69.3,29.78,North,-999,-999.0,-999.0,72,-99.99,,,-99.99,meteohub,2013-06-25 10:17:00,
2013-06-25 05:23:00,79.2,69.8,29.79,North,-999,-999.0,-999.0,73,-99.99,,,-99.99,meteohub,2013-06-25 10:23:00,
2013-06-25 05:29:00,79.2,69.8,29.80,North,-999,-999.0,-999.0,73,-99.99,,,-99.99,meteohub,2013-06-25 10:29:00,
2013-06-25 05:35:00,78.8,69.4,29.79,North,-999,-999.0,-999.0,73,-99.99,,,-99.99,meteohub,2013-06-25 10:35:00,
2013-06-25 05:41:00,79.2,69.8,29.80,North,-999,-999.0,-999.0,73,-99.99,,,-99.99,meteohub,2013-06-25 10:41:00,
2013-06-25 05:47:00,79.2,69.3,29.80,North,-999,-999.0,-999.0,72,-99.99,,,-99.99,meteohub,2013-06-25 10:47:00,
2013-06-25 05:52:00,79.3,69.4,29.81,North,-999,-999.0,-999.0,72,-99.99,,,-99.99,meteohub,2013-06-25 10:52:00,
2013-06-25 05:59:00,79.3,69.4,29.82,North,-999,-999.0,-999.0,72,-99.99,,,-99.99,meteohub,2013-06-25 10:59:00,
2013-06-25 06:05:00,79.3,70.0,29.83,North,-999,-999.0,-999.0,73,-99.99,,,-99.99,meteohub,2013-06-25 11:05:00,
2013-06-25 06:11:00,79.2,69.8,29.83,North,-999,-999.0,-999.0,73,-99.99,,,-99.99,meteohub,2013-06-25 11:11:00,
2013-06-25 06:17:00,79.2,69.8,29.82,North,-999,-999.0,-999.0,73,-99.99,,,-99.99,meteohub,2013-06-25 11:17:00,
2013-06-25 06:22:00,79.2,70.2,29.82,North,-999,-999.0,-999.0,74,-99.99,,,-99.99,meteohub,2013-06-25 11:22:00,
2013-06-25 06:27:00,79.0,70.0,29.82,North,-999,-999.0,-999.0,74,-99.99,,,-99.99,meteohub,2013-06-25 11:27:00,
2013-06-25 06:32:00,79.0,70.3,29.81,North,-999,-999.0,-999.0,75,-99.99,,,-99.99,meteohub,2013-06-25 11:32:00,
2013-06-25 06:39:00,78.8,70.2,29.81,North,-999,-999.0,-999.0,75,-99.99,,,-99.99,meteohub,2013-06-25 11:39:00,
2013-06-25 06:47:00,78.8,70.2,29.81,North,-999,-999.0,-999.0,75,-99.99,,,-99.99,meteohub,2013-06-25 11:47:00,
2013-06-25 06:52:00,78.6,70.0,29.81,North,-999,-999.0,-999.0,75,-99.99,,,-99.99,meteohub,2013-06-25 11:52:00,
2013-06-25 06:57:00,79.0,70.3,29.82,North,-999,-999.0,-999.0,75,-99.99,,,-99.99,meteohub,2013-06-25 11:57:00,
2013-06-25 07:02:00,78.6,70.3,29.82,North,-999,-999.0,-999.0,76,-99.99,,,-99.99,meteohub,2013-06-25 12:02:00,
2013-06-25 07:06:00,79.0,70.7,29.82,North,-999,-999.0,-999.0,76,-99.99,,,-99.99,meteohub,2013-06-25 12:06:00,
2013-06-25 07:12:00,78.8,71.1,29.82,North,-999,-999.0,-999.0,77,-99.99,,,-99.99,meteohub,2013-06-25 12:12:00,
2013-06-25 07:17:00,78.8,71.1,29.81,North,-999,-999.0,-999.0,77,-99.99,,,-99.99,meteohub,2013-06-25 12:17:00,
2013-06-25 07:22:00,78.8,71.1,29.83,North,-999,-999.0,-999.0,77,-99.99,,,-99.99,meteohub,2013-06-25 12:22:00,
2013-06-25 07:27:00,78.8,71.1,29.82,North,-999,-999.0,-999.0,77,-99.99,,,-99.99,meteohub,2013-06-25 12:27:00,
2013-06-25 07:33:00,78.8,71.1,29.83,North,-999,-999.0,-999.0,77,-99.99,,,-99.99,meteohub,2013-06-25 12:33:00,
2013-06-25 07:39:00,78.8,71.1,29.82,North,-999,-999.0,-999.0,77,-99.99,,,-99.99,meteohub,2013-06-25 12:39:00,
2013-06-25 07:45:00,78.8,71.1,29.83,North,-999,-999.0,-999.0,77,-99.99,,,-99.99,meteohub,2013-06-25 12:45:00,
2013-06-25 07:51:00,79.0,71.1,29.82,North,-999,-999.0,-999.0,77,-99.99,,,-99.99,meteohub,2013-06-25 12:51:00,
2013-06-25 07:57:00,79.0,71.1,29.82,North,-999,-999.0,-999.0,77,-99.99,,,-99.99,meteohub,2013-06-25 12:57:00,
2013-06-25 08:02:00,78.8,71.4,29.82,North,-999,-999.0,-999.0,78,-99.99,,,-99.99,meteohub,2013-06-25 13:02:00,
2013-06-25 08:07:00,78.8,71.4,29.82,North,-999,-999.0,-999.0,78,-99.99,,,-99.99,meteohub,2013-06-25 13:07:00,
2013-06-25 08:12:00,78.6,71.2,29.82,North,-999,-999.0,-999.0,78,-99.99,,,-99.99,meteohub,2013-06-25 13:12:00,
2013-06-25 08:17:00,78.4,71.1,29.82,North,-999,-999.0,-999.0,78,-99.99,,,-99.99,meteohub,2013-06-25 13:17:00,
2013-06-25 08:22:00,78.1,71.1,29.81,North,-999,-999.0,-999.0,79,-99.99,,,-99.99,meteohub,2013-06-25 13:22:00,
2013-06-25 08:27:00,78.3,71.2,29.82,North,-999,-999.0,-999.0,79,-99.99,,,-99.99,meteohub,2013-06-25 13:27:00,
2013-06-25 08:32:00,77.9,70.9,29.82,North,-999,-999.0,-999.0,79,-99.99,,,-99.99,meteohub,2013-06-25 13:32:00,
2013-06-25 08:37:00,78.1,71.4,29.82,North,-999,-999.0,-999.0,80,-99.99,,,-99.99,meteohub,2013-06-25 13:37:00,
2013-06-25 08:42:00,78.1,71.8,29.82,North,-999,-999.0,-999.0,81,-99.99,,,-99.99,meteohub,2013-06-25 13:42:00,
2013-06-25 08:47:00,77.5,71.2,29.82,North,-999,-999.0,-999.0,81,-99.99,,,-99.99,meteohub,2013-06-25 13:47:00,
2013-06-25 08:52:00,77.5,72.0,29.81,North,-999,-999.0,-999.0,83,-99.99,,,-99.99,meteohub,2013-06-25 13:52:00,
2013-06-25 08:57:00,76.8,72.0,29.81,North,-999,-999.0,-999.0,85,-99.99,,,-99.99,meteohub,2013-06-25 13:57:00,
2013-06-25 09:02:00,76.6,72.1,29.81,North,-999,-999.0,-999.0,86,-99.99,,,-99.99,meteohub,2013-06-25 14:02:00,
2013-06-25 09:07:00,76.8,72.3,29.81,North,-999,-999.0,-999.0,86,-99.99,,,-99.99,meteohub,2013-06-25 14:07:00,
2013-06-25 09:12:00,76.8,72.7,29.80,North,-999,-999.0,-999.0,87,-99.99,,,-99.99,meteohub,2013-06-25 14:12:00,
2013-06-25 09:19:00,76.8,72.3,29.81,North,-999,-999.0,-999.0,86,-99.99,,,-99.99,meteohub,2013-06-25 14:19:00,
2013-06-25 09:25:00,76.5,72.3,29.82,North,-999,-999.0,-999.0,87,-99.99,,,-99.99,meteohub,2013-06-25 14:25:00,
2013-06-25 09:31:00,76.8,72.7,29.82,North,-999,-999.0,-999.0,87,-99.99,,,-99.99,meteohub,2013-06-25 14:31:00,
2013-06-25 09:37:00,76.8,72.7,29.82,North,-999,-999.0,-999.0,87,-99.99,,,-99.99,meteohub,2013-06-25 14:37:00,
2013-06-25 09:42:00,76.8,73.0,29.84,North,-999,-999.0,-999.0,88,-99.99,,,-99.99,meteohub,2013-06-25 14:42:00,
2013-06-25 09:47:00,76.5,73.0,29.85,North,-999,-999.0,-999.0,89,-99.99,,,-99.99,meteohub,2013-06-25 14:47:00,
2013-06-25 09:52:00,76.3,72.9,29.84,North,-999,-999.0,-999.0,89,-99.99,,,-99.99,meteohub,2013-06-25 14:52:00,
2013-06-25 09:57:00,76.5,73.2,29.84,North,-999,-999.0,-999.0,90,-99.99,,,-99.99,meteohub,2013-06-25 14:57:00,
2013-06-25 10:02:00,76.1,72.9,29.84,North,-999,-999.0,-999.0,90,-99.99,,,-99.99,meteohub,2013-06-25 15:02:00,
2013-06-25 10:07:00,76.1,73.2,29.85,North,-999,-999.0,-999.0,91,-99.99,,,-99.99,meteohub,2013-06-25 15:07:00,
2013-06-25 10:12:00,75.6,72.7,29.84,North,-999,-999.0,-999.0,91,-99.99,,,-99.99,meteohub,2013-06-25 15:12:00,
2013-06-25 10:17:00,75.4,72.9,29.84,North,-999,-999.0,-999.0,92,-99.99,,,-99.99,meteohub,2013-06-25 15:17:00,
2013-06-25 10:22:00,75.4,73.2,29.84,North,-999,-999.0,-999.0,93,-99.99,,,-99.99,meteohub,2013-06-25 15:22:00,
2013-06-25 10:27:00,75.2,73.0,29.84,North,-999,-999.0,-999.0,93,-99.99,,,-99.99,meteohub,2013-06-25 15:27:00,
2013-06-25 10:32:00,75.0,72.9,29.85,North,-999,-999.0,-999.0,93,-99.99,,,-99.99,meteohub,2013-06-25 15:32:00,
2013-06-25 10:37:00,75.0,73.2,29.84,North,-999,-999.0,-999.0,94,-99.99,,,-99.99,meteohub,2013-06-25 15:37:00,
2013-06-25 10:42:00,75.0,73.4,29.84,North,-999,-999.0,-999.0,95,-99.99,,,-99.99,meteohub,2013-06-25 15:42:00,
2013-06-25 10:47:00,74.8,73.6,29.83,North,-999,-999.0,-999.0,96,-99.99,,,-99.99,meteohub,2013-06-25 15:47:00,
2013-06-25 10:52:00,74.7,73.4,29.84,North,-999,-999.0,-999.0,96,-99.99,,,-99.99,meteohub,2013-06-25 15:52:00,
2013-06-25 10:57:00,74.7,73.4,29.84,North,-999,-999.0,-999.0,96,-99.99,,,-99.99,meteohub,2013-06-25 15:57:00,
2013-06-25 11:02:00,74.7,73.4,29.83,North,-999,-999.0,-999.0,96,-99.99,,,-99.99,meteohub,2013-06-25 16:02:00,
2013-06-25 11:07:00,74.3,73.4,29.83,North,-999,-999.0,-999.0,97,-99.99,,,-99.99,meteohub,2013-06-25 16:07:00,
2013-06-25 11:12:00,74.5,73.9,29.83,North,-999,-999.0,-999.0,98,-99.99,,,-99.99,meteohub,2013-06-25 16:12:00,
2013-06-25 11:17:00,74.3,73.8,29.82,North,-999,-999.0,-999.0,98,-99.99,,,-99.99,meteohub,2013-06-25 16:17:00,
2013-06-25 11:22:00,74.7,73.8,29.81,North,-999,-999.0,-999.0,97,-99.99,,,-99.99,meteohub,2013-06-25 16:22:00,
2013-06-25 11:27:00,74.7,73.8,29.79,North,-999,-999.0,-999.0,97,-99.99,,,-99.99,meteohub,2013-06-25 16:27:00,
2013-06-25 11:32:00,74.8,73.9,29.80,North,-999,-999.0,-999.0,97,-99.99,,,-99.99,meteohub,2013-06-25 16:32:00,
2013-06-25 11:37:00,75.0,74.1,29.81,North,-999,-999.0,-999.0,97,-99.99,,,-99.99,meteohub,2013-06-25 16:37:00,
2013-06-25 11:42:00,75.4,74.1,29.81,North,-999,-999.0,-999.0,96,-99.99,,,-99.99,meteohub,2013-06-25 16:42:00,
2013-06-25 11:47:00,75.7,74.1,29.81,North,-999,-999.0,-999.0,95,-99.99,,,-99.99,meteohub,2013-06-25 16:47:00,
2013-06-25 11:52:00,76.3,74.5,29.80,North,-999,-999.0,-999.0,94,-99.99,,,-99.99,meteohub,2013-06-25 16:52:00,
2013-06-25 11:57:00,77.0,74.5,29.80,North,-999,-999.0,-999.0,92,-99.99,,,-99.99,meteohub,2013-06-25 16:57:00,
2013-06-25 12:02:00,77.4,74.5,29.80,North,-999,-999.0,-999.0,91,-99.99,,,-99.99,meteohub,2013-06-25 17:02:00,
2013-06-25 12:07:00,77.9,75.0,29.81,North,-999,-999.0,-999.0,91,-99.99,,,-99.99,meteohub,2013-06-25 17:07:00,
2013-06-25 12:12:00,78.6,75.4,29.81,North,-999,-999.0,-999.0,90,-99.99,,,-99.99,meteohub,2013-06-25 17:12:00,
2013-06-25 12:17:00,79.3,75.2,29.80,North,-999,-999.0,-999.0,87,-99.99,,,-99.99,meteohub,2013-06-25 17:17:00,
2013-06-25 12:22:00,80.1,75.9,29.80,North,-999,-999.0,-999.0,87,-99.99,,,-99.99,meteohub,2013-06-25 17:22:00,
2013-06-25 12:27:00,80.4,75.6,29.79,North,-999,-999.0,-999.0,85,-99.99,,,-99.99,meteohub,2013-06-25 17:27:00,
2013-06-25 12:32:00,81.7,75.2,29.78,North,-999,-999.0,-999.0,81,-99.99,,,-99.99,meteohub,2013-06-25 17:32:00,
2013-06-25 12:37:00,82.8,75.2,29.77,North,-999,-999.0,-999.0,78,-99.99,,,-99.99,meteohub,2013-06-25 17:37:00,
2013-06-25 12:42:00,83.1,75.2,29.78,North,-999,-999.0,-999.0,77,-99.99,,,-99.99,meteohub,2013-06-25 17:42:00,
2013-06-25 12:47:00,84.0,75.6,29.77,North,-999,-999.0,-999.0,76,-99.99,,,-99.99,meteohub,2013-06-25 17:47:00,
2013-06-25 12:52:00,84.7,75.9,29.77,North,-999,-999.0,-999.0,75,-99.99,,,-99.99,meteohub,2013-06-25 17:52:00,
2013-06-25 12:57:00,85.1,75.0,29.78,North,-999,-999.0,-999.0,72,-99.99,,,-99.99,meteohub,2013-06-25 17:57:00,
2013-06-25 13:02:00,85.3,75.2,29.78,North,-999,-999.0,-999.0,72,-99.99,,,-99.99,meteohub,2013-06-25 18:02:00,
2013-06-25 13:07:00,85.6,75.6,29.78,North,-999,-999.0,-999.0,72,-99.99,,,-99.99,meteohub,2013-06-25 18:07:00,
2013-06-25 13:12:00,86.5,74.3,29.77,North,-999,-999.0,-999.0,67,-99.99,,,-99.99,meteohub,2013-06-25 18:12:00,
2013-06-25 13:17:00,86.7,74.8,29.78,North,-999,-999.0,-999.0,68,-99.99,,,-99.99,meteohub,2013-06-25 18:17:00,
2013-06-25 13:22:00,87.4,74.7,29.78,North,-999,-999.0,-999.0,66,-99.99,,,-99.99,meteohub,2013-06-25 18:22:00,
2013-06-25 13:27:00,88.0,73.8,29.77,North,-999,-999.0,-999.0,63,-99.99,,,-99.99,meteohub,2013-06-25 18:27:00,
2013-06-25 13:32:00,86.9,73.8,29.77,North,-999,-999.0,-999.0,65,-99.99,,,-99.99,meteohub,2013-06-25 18:32:00,
2013-06-25 13:38:00,86.4,73.2,29.77,North,-999,-999.0,-999.0,65,-99.99,,,-99.99,meteohub,2013-06-25 18:38:00,
2013-06-25 13:44:00,84.9,72.3,29.77,North,-999,-999.0,-999.0,66,-99.99,,,-99.99,meteohub,2013-06-25 18:44:00,
2013-06-25 13:50:00,86.0,73.2,29.77,North,-999,-999.0,-999.0,66,-99.99,,,-99.99,meteohub,2013-06-25 18:50:00,
2013-06-25 13:57:00,85.8,72.1,29.77,North,-999,-999.0,-999.0,64,-99.99,,,-99.99,meteohub,2013-06-25 18:57:00,
2013-06-25 14:02:00,86.2,73.4,29.76,North,-999,-999.0,-999.0,66,-99.99,,,-99.99,meteohub,2013-06-25 19:02:00,
2013-06-25 14:07:00,86.9,73.2,29.75,North,-999,-999.0,-999.0,64,-99.99,,,-99.99,meteohub,2013-06-25 19:07:00,
2013-06-25 14:12:00,86.7,72.7,29.75,North,-999,-999.0,-999.0,63,-99.99,,,-99.99,meteohub,2013-06-25 19:12:00,
2013-06-25 14:17:00,86.4,73.2,29.75,North,-999,-999.0,-999.0,65,-99.99,,,-99.99,meteohub,2013-06-25 19:17:00,
2013-06-25 14:22:00,87.4,72.9,29.74,North,-999,-999.0,-999.0,62,-99.99,,,-99.99,meteohub,2013-06-25 19:22:00,
2013-06-25 14:27:00,87.8,72.1,29.74,North,-999,-999.0,-999.0,60,-99.99,,,-99.99,meteohub,2013-06-25 19:27:00,
2013-06-25 14:32:00,87.6,71.6,29.73,North,-999,-999.0,-999.0,59,-99.99,,,-99.99,meteohub,2013-06-25 19:32:00,
2013-06-25 14:37:00,86.7,71.6,29.73,North,-999,-999.0,-999.0,61,-99.99,,,-99.99,meteohub,2013-06-25 19:37:00,
2013-06-25 14:42:00,87.6,72.5,29.72,North,-999,-999.0,-999.0,61,-99.99,,,-99.99,meteohub,2013-06-25 19:42:00,
2013-06-25 14:47:00,89.1,71.8,29.72,North,-999,-999.0,-999.0,57,-99.99,,,-99.99,meteohub,2013-06-25 19:47:00,
2013-06-25 14:52:00,89.6,71.8,29.72,North,-999,-999.0,-999.0,56,-99.99,,,-99.99,meteohub,2013-06-25 19:52:00,
2013-06-25 14:57:00,89.6,70.7,29.72,North,-999,-999.0,-999.0,54,-99.99,,,-99.99,meteohub,2013-06-25 19:57:00,
2013-06-25 15:02:00,89.6,71.8,29.72,North,-999,-999.0,-999.0,56,-99.99,,,-99.99,meteohub,2013-06-25 20:02:00,
2013-06-25 15:07:00,89.8,71.4,29.72,North,-999,-999.0,-999.0,55,-99.99,,,-99.99,meteohub,2013-06-25 20:07:00,
2013-06-25 15:12:00,89.8,71.4,29.72,North,-999,-999.0,-999.0,55,-99.99,,,-99.99,meteohub,2013-06-25 20:12:00,
2013-06-25 15:17:00,90.0,71.1,29.72,North,-999,-999.0,-999.0,54,-99.99,,,-99.99,meteohub,2013-06-25 20:17:00,
2013-06-25 15:22:00,90.5,72.1,29.72,North,-999,-999.0,-999.0,55,-99.99,,,-99.99,meteohub,2013-06-25 20:22:00,
2013-06-25 15:27:00,90.5,71.6,29.72,North,-999,-999.0,-999.0,54,-99.99,,,-99.99,meteohub,2013-06-25 20:27:00,
2013-06-25 15:32:00,91.2,72.3,29.72,North,-999,-999.0,-999.0,54,-99.99,,,-99.99,meteohub,2013-06-25 20:32:00,
2013-06-25 15:37:00,91.8,71.1,29.72,North,-999,-999.0,-999.0,51,-99.99,,,-99.99,meteohub,2013-06-25 20:37:00,
2013-06-25 15:42:00,91.2,70.5,29.72,North,-999,-999.0,-999.0,51,-99.99,,,-99.99,meteohub,2013-06-25 20:42:00,
2013-06-25 15:47:00,91.6,71.4,29.71,North,-999,-999.0,-999.0,52,-99.99,,,-99.99,meteohub,2013-06-25 20:47:00,
2013-06-25 15:52:00,91.9,71.2,29.72,North,-999,-999.0,-999.0,51,-99.99,,,-99.99,meteohub,2013-06-25 20:52:00,
2013-06-25 15:57:00,91.6,70.9,29.71,North,-999,-999.0,-999.0,51,-99.99,,,-99.99,meteohub,2013-06-25 20:57:00,
2013-06-25 16:02:00,91.2,70.5,29.71,North,-999,-999.0,-999.0,51,-99.99,,,-99.99,meteohub,2013-06-25 21:02:00,
2013-06-25 16:09:00,90.7,70.7,29.70,North,-999,-999.0,-999.0,52,-99.99,,,-99.99,meteohub,2013-06-25 21:09:00,
2013-06-25 16:15:00,90.1,69.6,29.70,North,-999,-999.0,-999.0,51,-99.99,,,-99.99,meteohub,2013-06-25 21:15:00,
2013-06-25 16:21:00,90.5,71.6,29.69,North,-999,-999.0,-999.0,54,-99.99,,,-99.99,meteohub,2013-06-25 21:21:00,
2013-06-25 16:27:00,90.9,73.0,29.69,North,-999,-999.0,-999.0,56,-99.99,,,-99.99,meteohub,2013-06-25 21:27:00,
2013-06-25 16:32:00,91.8,71.6,29.69,North,-999,-999.0,-999.0,52,-99.99,,,-99.99,meteohub,2013-06-25 21:32:00,
2013-06-25 16:37:00,92.3,70.3,29.69,North,-999,-999.0,-999.0,49,-99.99,,,-99.99,meteohub,2013-06-25 21:37:00,
2013-06-25 16:42:00,93.0,69.8,29.69,North,-999,-999.0,-999.0,47,-99.99,,,-99.99,meteohub,2013-06-25 21:42:00,
2013-06-25 16:47:00,91.9,69.4,29.69,North,-999,-999.0,-999.0,48,-99.99,,,-99.99,meteohub,2013-06-25 21:47:00,
2013-06-25 16:52:00,91.2,70.5,29.69,North,-999,-999.0,-999.0,51,-99.99,,,-99.99,meteohub,2013-06-25 21:52:00,
2013-06-25 16:57:00,91.4,70.2,29.68,North,-999,-999.0,-999.0,50,-99.99,,,-99.99,meteohub,2013-06-25 21:57:00,
2013-06-25 17:02:00,91.8,71.1,29.69,North,-999,-999.0,-999.0,51,-99.99,,,-99.99,meteohub,2013-06-25 22:02:00,
2013-06-25 17:07:00,91.8,71.1,29.68,North,-999,-999.0,-999.0,51,-99.99,,,-99.99,meteohub,2013-06-25 22:07:00,
2013-06-25 17:12:00,91.2,70.5,29.69,North,-999,-999.0,-999.0,51,-99.99,,,-99.99,meteohub,2013-06-25 22:12:00,
2013-06-25 17:17:00,91.6,69.8,29.69,North,-999,-999.0,-999.0,49,-99.99,,,-99.99,meteohub,2013-06-25 22:17:00,
2013-06-25 17:22:00,92.1,70.2,29.70,North,-999,-999.0,-999.0,49,-99.99,,,-99.99,meteohub,2013-06-25 22:22:00,
2013-06-25 17:27:00,92.5,70.0,29.69,North,-999,-999.0,-999.0,48,-99.99,,,-99.99,meteohub,2013-06-25 22:27:00,
2013-06-25 17:32:00,91.4,70.7,29.69,North,-999,-999.0,-999.0,51,-99.99,,,-99.99,meteohub,2013-06-25 22:32:00,
2013-06-25 17:37:00,91.4,70.7,29.69,North,-999,-999.0,-999.0,51,-99.99,,,-99.99,meteohub,2013-06-25 22:37:00,
2013-06-25 17:42:00,91.2,71.1,29.69,North,-999,-999.0,-999.0,52,-99.99,,,-99.99,meteohub,2013-06-25 22:42:00,
2013-06-25 17:47:00,90.7,70.0,29.69,North,-999,-999.0,-999.0,51,-99.99,,,-99.99,meteohub,2013-06-25 22:47:00,
2013-06-25 17:52:00,90.0,71.1,29.70,North,-999,-999.0,-999.0,54,-99.99,,,-99.99,meteohub,2013-06-25 22:52:00,
2013-06-25 17:57:00,88.9,71.6,29.70,North,-999,-999.0,-999.0,57,-99.99,,,-99.99,meteohub,2013-06-25 22:57:00,
2013-06-25 18:02:00,88.2,71.6,29.70,North,-999,-999.0,-999.0,58,-99.99,,,-99.99,meteohub,2013-06-25 23:02:00,
2013-06-25 18:07:00,87.6,71.6,29.71,North,-999,-999.0,-999.0,59,-99.99,,,-99.99,meteohub,2013-06-25 23:07:00,
2013-06-25 18:12:00,87.4,71.4,29.71,North,-999,-999.0,-999.0,59,-99.99,,,-99.99,meteohub,2013-06-25 23:12:00,
2013-06-25 18:17:00,87.1,71.1,29.71,North,-999,-999.0,-999.0,59,-99.99,,,-99.99,meteohub,2013-06-25 23:17:00,
2013-06-25 18:22:00,86.9,71.4,29.70,North,-999,-999.0,-999.0,60,-99.99,,,-99.99,meteohub,2013-06-25 23:22:00,
2013-06-25 18:27:00,86.9,71.4,29.70,North,-999,-999.0,-999.0,60,-99.99,,,-99.99,meteohub,2013-06-25 23:27:00,
2013-06-25 18:32:00,86.7,71.6,29.71,North,-999,-999.0,-999.0,61,-99.99,,,-99.99,meteohub,2013-06-25 23:32:00,
2013-06-25 18:37:00,87.1,72.0,29.70,North,-999,-999.0,-999.0,61,-99.99,,,-99.99,meteohub,2013-06-25 23:37:00,
2013-06-25 18:42:00,87.4,72.3,29.70,North,-999,-999.0,-999.0,61,-99.99,,,-99.99,meteohub,2013-06-25 23:42:00,
2013-06-25 18:47:00,87.4,72.3,29.71,North,-999,-999.0,-999.0,61,-99.99,,,-99.99,meteohub,2013-06-25 23:47:00,
2013-06-25 18:52:00,87.6,72.0,29.71,North,-999,-999.0,-999.0,60,-99.99,,,-99.99,meteohub,2013-06-25 23:52:00,
2013-06-25 18:57:00,86.7,72.1,29.70,North,-999,-999.0,-999.0,62,-99.99,,,-99.99,meteohub,2013-06-25 23:57:00,
2013-06-25 19:02:00,86.4,72.3,29.70,North,-999,-999.0,-999.0,63,-99.99,,,-99.99,meteohub,2013-06-26 00:02:00,
2013-06-25 19:07:00,86.0,72.9,29.70,North,-999,-999.0,-999.0,65,-99.99,,,-99.99,meteohub,2013-06-26 00:07:00,
2013-06-25 19:12:00,85.6,72.5,29.71,North,-999,-999.0,-999.0,65,-99.99,,,-99.99,meteohub,2013-06-26 00:12:00,
2013-06-25 19:17:00,85.8,72.7,29.71,North,-999,-999.0,-999.0,65,-99.99,,,-99.99,meteohub,2013-06-26 00:17:00,
2013-06-25 19:22:00,86.0,72.9,29.70,North,-999,-999.0,-999.0,65,-99.99,,,-99.99,meteohub,2013-06-26 00:22:00,
2013-06-25 19:27:00,86.0,72.9,29.71,North,-999,-999.0,-999.0,65,-99.99,,,-99.99,meteohub,2013-06-26 00:27:00,
2013-06-25 19:32:00,85.8,72.7,29.71,North,-999,-999.0,-999.0,65,-99.99,,,-99.99,meteohub,2013-06-26 00:32:00,
2013-06-25 19:37:00,85.8,72.7,29.71,North,-999,-999.0,-999.0,65,-99.99,,,-99.99,meteohub,2013-06-26 00:37:00,
2013-06-25 19:42:00,85.5,72.9,29.71,North,-999,-999.0,-999.0,66,-99.99,,,-99.99,meteohub,2013-06-26 00:42:00,
2013-06-25 19:47:00,85.1,72.9,29.71,North,-999,-999.0,-999.0,67,-99.99,,,-99.99,meteohub,2013-06-26 00:47:00,
2013-06-25 19:52:00,84.7,73.0,29.71,North,-999,-999.0,-999.0,68,-99.99,,,-99.99,meteohub,2013-06-26 00:52:00,
2013-06-25 19:57:00,84.4,72.7,29.71,North,-999,-999.0,-999.0,68,-99.99,,,-99.99,meteohub,2013-06-26 00:57:00,
2013-06-25 20:02:00,83.8,72.1,29.70,North,-999,-999.0,-999.0,68,-99.99,,,-99.99,meteohub,2013-06-26 01:02:00,
2013-06-25 20:07:00,83.7,72.0,29.70,North,-999,-999.0,-999.0,68,-99.99,,,-99.99,meteohub,2013-06-26 01:07:00,
2013-06-25 20:12:00,83.3,72.1,29.70,North,-999,-999.0,-999.0,69,-99.99,,,-99.99,meteohub,2013-06-26 01:12:00,
2013-06-25 20:17:00,83.1,72.0,29.70,North,-999,-999.0,-999.0,69,-99.99,,,-99.99,meteohub,2013-06-26 01:17:00,
2013-06-25 20:22:00,82.8,71.6,29.70,North,-999,-999.0,-999.0,69,-99.99,,,-99.99,meteohub,2013-06-26 01:22:00,
2013-06-25 20:27:00,82.8,72.0,29.70,North,-999,-999.0,-999.0,70,-99.99,,,-99.99,meteohub,2013-06-26 01:27:00,
2013-06-25 20:32:00,82.4,71.6,29.70,North,-999,-999.0,-999.0,70,-99.99,,,-99.99,meteohub,2013-06-26 01:32:00,
2013-06-25 20:37:00,82.2,71.4,29.70,North,-999,-999.0,-999.0,70,-99.99,,,-99.99,meteohub,2013-06-26 01:37:00,
2013-06-25 20:42:00,82.0,71.2,29.70,North,-999,-999.0,-999.0,70,-99.99,,,-99.99,meteohub,2013-06-26 01:42:00,
2013-06-25 20:47:00,81.5,71.2,29.69,North,-999,-999.0,-999.0,71,-99.99,,,-99.99,meteohub,2013-06-26 01:47:00,
2013-06-25 20:52:00,81.9,71.6,29.70,North,-999,-999.0,-999.0,71,-99.99,,,-99.99,meteohub,2013-06-26 01:52:00,
2013-06-25 20:57:00,81.7,71.4,29.70,North,-999,-999.0,-999.0,71,-99.99,,,-99.99,meteohub,2013-06-26 01:57:00,
2013-06-25 21:02:00,81.5,71.6,29.70,North,-999,-999.0,-999.0,72,-99.99,,,-99.99,meteohub,2013-06-26 02:02:00,
2013-06-25 21:07:00,81.3,71.4,29.70,North,-999,-999.0,-999.0,72,-99.99,,,-99.99,meteohub,2013-06-26 02:07:00,
2013-06-25 21:12:00,81.1,71.6,29.70,North,-999,-999.0,-999.0,73,-99.99,,,-99.99,meteohub,2013-06-26 02:12:00,
2013-06-25 21:17:00,81.0,71.4,29.70,North,-999,-999.0,-999.0,73,-99.99,,,-99.99,meteohub,2013-06-26 02:17:00,
2013-06-25 21:22:00,81.0,71.4,29.70,North,-999,-999.0,-999.0,73,-99.99,,,-99.99,meteohub,2013-06-26 02:22:00,
2013-06-25 21:27:00,81.0,71.4,29.70,North,-999,-999.0,-999.0,73,-99.99,,,-99.99,meteohub,2013-06-26 02:27:00,
2013-06-25 21:32:00,81.0,71.4,29.71,North,-999,-999.0,-999.0,73,-99.99,,,-99.99,meteohub,2013-06-26 02:32:00,
2013-06-25 21:37:00,81.0,71.4,29.71,North,-999,-999.0,-999.0,73,-99.99,,,-99.99,meteohub,2013-06-26 02:37:00,
2013-06-25 21:42:00,81.0,72.0,29.71,North,-999,-999.0,-999.0,74,-99.99,,,-99.99,meteohub,2013-06-26 02:42:00,
2013-06-25 21:47:00,80.8,71.8,29.71,North,-999,-999.0,-999.0,74,-99.99,,,-99.99,meteohub,2013-06-26 02:47:00,
2013-06-25 21:52:00,80.8,71.8,29.71,North,-999,-999.0,-999.0,74,-99.99,,,-99.99,meteohub,2013-06-26 02:52:00,
2013-06-25 21:57:00,80.8,71.8,29.71,North,-999,-999.0,-999.0,74,-99.99,,,-99.99,meteohub,2013-06-26 02:57:00,
2013-06-25 22:02:00,80.6,71.6,29.71,North,-999,-999.0,-999.0,74,-99.99,,,-99.99,meteohub,2013-06-26 03:02:00,
2013-06-25 22:07:00,80.4,71.8,29.71,North,-999,-999.0,-999.0,75,-99.99,,,-99.99,meteohub,2013-06-26 03:07:00,
2013-06-25 22:12:00,80.4,71.8,29.72,North,-999,-999.0,-999.0,75,-99.99,,,-99.99,meteohub,2013-06-26 03:12:00,
2013-06-25 22:17:00,79.9,71.6,29.72,North,-999,-999.0,-999.0,76,-99.99,,,-99.99,meteohub,2013-06-26 03:17:00,
2013-06-25 22:22:00,80.2,71.6,29.72,North,-999,-999.0,-999.0,75,-99.99,,,-99.99,meteohub,2013-06-26 03:22:00,
2013-06-25 22:27:00,80.2,72.0,29.72,North,-999,-999.0,-999.0,76,-99.99,,,-99.99,meteohub,2013-06-26 03:27:00,
2013-06-25 22:32:00,80.2,72.0,29.72,North,-999,-999.0,-999.0,76,-99.99,,,-99.99,meteohub,2013-06-26 03:32:00,
2013-06-25 22:37:00,80.2,72.0,29.73,North,-999,-999.0,-999.0,76,-99.99,,,-99.99,meteohub,2013-06-26 03:37:00,
2013-06-25 22:42:00,80.1,71.8,29.72,North,-999,-999.0,-999.0,76,-99.99,,,-99.99,meteohub,2013-06-26 03:42:00,
2013-06-25 22:47:00,79.9,72.0,29.72,North,-999,-999.0,-999.0,77,-99.99,,,-99.99,meteohub,2013-06-26 03:47:00,
2013-06-25 22:52:00,79.9,72.0,29.73,North,-999,-999.0,-999.0,77,-99.99,,,-99.99,meteohub,2013-06-26 03:52:00,
2013-06-25 22:57:00,79.7,71.8,29.72,North,-999,-999.0,-999.0,77,-99.99,,,-99.99,meteohub,2013-06-26 03:57:00,
2013-06-25 23:02:00,79.7,72.1,29.73,North,-999,-999.0,-999.0,78,-99.99,,,-99.99,meteohub,2013-06-26 04:02:00,
2013-06-25 23:03:00,79.7,72.1,29.72,North,-999,-999.0,-999.0,78,-99.99,,,-99.99,meteohub,2013-06-26 04:03:00,
2013-06-25 23:07:00,79.7,72.1,29.73,North,-999,-999.0,-999.0,78,-99.99,,,-99.99,meteohub,2013-06-26 04:07:00,
2013-06-25 23:09:00,79.7,72.1,29.72,North,-999,-999.0,-999.0,78,-99.99,,,-99.99,meteohub,2013-06-26 04:09:00,
2013-06-25 23:12:00,79.2,71.8,29.72,North,-999,-999.0,-999.0,78,-99.99,,,-99.99,meteohub,2013-06-26 04:12:00,
2013-06-25 23:17:00,79.2,72.1,29.73,North,-999,-999.0,-999.0,79,-99.99,,,-99.99,meteohub,2013-06-26 04:17:00,
2013-06-25 23:22:00,79.5,72.5,29.72,North,-999,-999.0,-999.0,79,-99.99,,,-99.99,meteohub,2013-06-26 04:22:00,
2013-06-25 23:27:00,79.3,72.3,29.72,North,-999,-999.0,-999.0,79,-99.99,,,-99.99,meteohub,2013-06-26 04:27:00,
2013-06-25 23:32:00,79.3,72.3,29.72,North,-999,-999.0,-999.0,79,-99.99,,,-99.99,meteohub,2013-06-26 04:32:00,
2013-06-25 23:37:00,79.3,72.3,29.72,North,-999,-999.0,-999.0,79,-99.99,,,-99.99,meteohub,2013-06-26 04:37:00,
2013-06-25 23:42:00,79.2,72.1,29.72,North,-999,-999.0,-999.0,79,-99.99,,,-99.99,meteohub,2013-06-26 04:42:00,
2013-06-25 23:47:00,79.2,72.1,29.72,North,-999,-999.0,-999.0,79,-99.99,,,-99.99,meteohub,2013-06-26 04:47:00,
2013-06-25 23:52:00,79.0,72.3,29.72,North,-999,-999.0,-999.0,80,-99.99,,,-99.99,meteohub,2013-06-26 04:52:00,
2013-06-25 23:57:00,79.0,72.3,29.72,North,-999,-999.0,-999.0,80,-99.99,,,-99.99,meteohub,2013-06-26 04:57:00,